Temp
74 75 78 78 78 78 78 78 77 78 78 78 78 78 78 78 78 78 78 78 78 78 79 78 78 78 77 77 77 76 76 75 75 75 74 75 77 77 77 77 77 76 77
79 78 77 78 78 78 77 77 77 77 77 78 78 78 78 78 78 78 78 78 78 78 78 78 78 77 77 76 76 76 76 75 75 74 73 72 74 77 77 76 76 76 77
79 78 78 77 77 77 77 77 77 77 77 77 78 78 78 78 78 78 78 78 78 78 78 77 77 76 76 76 75 76 75 75 74 74 73 70 73 77 77 76 76 76 77
82 80 78 77 77 77 77 77 77 77 77 77 77 78 78 78 78 78 77 78 78 77 77 76 76 76 75 75 75 75 76 75 74 73 72 79 79 77 77 76 76 77 77
79 80 77 76 77 77 77 77 77 77 77 77 77 77 77 77 77 77 76 77 77 76 76 76 76 76 75 75 75 75 76 75 73 72 72 73 73 77 77 77 77 77 77
78 78 76 76 76 76 76 76 76 76 76 75 75 75 76 76 76 76 75 75 75 75 75 76 76 76 75 75 75 75 75 74 72 69 71 74 75 78 77 77 77 76 76
76 76 75 75 75 75 75 75 74 74 74 74 74 74 74 74 74 74 73 73 74 74 74 75 75 76 75 75 75 75 75 73 70 68 70 72 73 78 77 77 77 77 77
75 76 74 72 73 73 73 73 73 73 73 73 73 73 73 73 73 73 73 73 73 73 73 73 74 74 74 74 75 74 73 71 72 70 71 72 76 78 78 77 76 77 77
78 75 73 71 70 70 70 71 71 71 71 71 71 71 71 71 72 73 73 71 72 72 72 72 72 73 73 73 73 72 71 70 69 70 75 75 75 79 79 77 76 76 77
70 70 73 73 73 69 66 69 69 69 70 70 70 70 70 68 70 73 72 70 70 70 71 71 72 72 72 72 72 71 70 69 67 69 71 70 75 77 77 77 76 76 76
67 70 72 72 72 70 69 68 68 70 69 70 70 68 67 67 68 69 67 68 69 70 70 71 71 71 70 69 69 70 69 66 67 69 71 73 75 75 76 76 75 75 76
63 69 70 70 70 70 76 68 67 70 66 67 67 66 66 66 66 69 66 68 69 69 69 72 71 71 69 64 65 69 65 66 67 68 69 73 75 76 75 75 75 74 74
67 67 68 68 68 68 67 64 64 64 63 65 65 65 64 66 64 64 62 62 62 66 63 66 65 65 64 64 65 65 66 65 65 67 69 72 75 76 75 75 73 73 73
66 66 67 67 66 65 63 63 64 63 64 63 63 65 61 59 60 61 60 60 60 61 61 60 60 62 63 64 63 64 64 64 64 65 66 69 72 74 74 74 74 73 74
64 65 65 65 64 64 64 62 64 64 63 63 62 63 61 59 58 59 59 59 59 60 59 59 59 60 61 62 63 64 64 63 64 64 63 66 70 71 73 74 74 73 73
65 64 64 65 65 66 63 62 62 63 63 62 61 61 62 59 58 58 58 59 59 59 59 59 59 59 59 61 61 63 63 63 63 64 63 63 68 69 71 73 73 73 72
65 65 64 65 65 64 63 62 61 61 63 60 59 61 61 61 59 58 57 57 58 58 59 58 59 59 58 61 59 61 62 62 62 63 63 62 63 65 68 71 72 72 71
64 64 64 68 64 63 62 60 61 60 58 58 59 58 61 61 60 57 56 57 58 58 57 57 57 56 56 56 56 58 58 60 61 62 62 62 62 63 65 68 70 70 70
65 64 62 63 62 62 61 60 59 60 58 58 58 58 59 61 61 57 56 57 58 57 57 57 57 55 54 55 57 57 57 57 59 64 61 62 62 62 61 65 66 66 68
64 63 62 62 62 61 60 59 58 58 57 57 57 57 60 59 60 57 57 57 58 57 56 57 56 56 55 54 61 59 56 57 58 57 59 63 61 62 61 62 60 62 65
61 61 61 60 61 59 57 56 56 55 56 56 56 59 59 59 59 57 56 56 57 56 56 57 56 54 55 54 52 54 54 57 57 57 58 58 60 62 61 61 60 60 61
60 60 60 61 61 60 58 57 56 54 55 55 56 57 59 59 58 58 55 55 56 58 57 60 59 56 53 54 50 49 47 52 54 58 57 59 58 59 61 63 62 62 60
57 57 60 60 61 60 60 58 56 55 54 53 54 55 57 59 58 57 56 58 59 59 57 58 57 57 54 52 53 50 44 43 47 54 54 56 58 57 58 60 62 62 61
57 58 60 61 60 61 59 56 54 52 51 53 54 55 56 58 57 58 57 59 59 59 58 57 59 56 56 53 52 61 56 54 44 43 50 52 56 57 57 58 59 60 60
57 55 57 59 59 59 58 56 53 52 53 54 55 55 55 56 58 58 57 55 57 58 57 57 56 56 56 54 54 55 55 53 53 49 45 47 52 55 57 60 58 58 59
56 56 56 57 58 59 57 56 54 52 52 52 53 53 53 55 56 57 56 54 54 55 57 57 56 56 56 55 54 54 52 50 50 49 48 50 51 50 56 57 62 61 57
MSLP
1016.50 1016.71 1017.02 1017.26 1017.45 1017.63 1017.70 1017.79 1017.84 1017.85 1017.91 1017.88 1017.86 1017.89 1017.92 1017.87 1017.98 1018.02 1018.06 1018.07 1018.00 1017.95 1017.92 1017.91 1017.88 1017.85 1017.83 1017.80 1017.80 1017.82 1017.83 1017.83 1017.80 1017.73 1017.66 1017.51 1017.32 1017.24 1017.22 1017.19 1016.93 1017.09 1017.07
1015.97 1016.75 1017.08 1017.40 1017.62 1017.75 1017.86 1018.00 1018.09 1018.11 1018.11 1018.17 1018.05 1017.96 1018.02 1018.01 1018.06 1018.12 1018.13 1018.14 1018.11 1018.08 1018.10 1018.09 1018.07 1018.07 1018.04 1018.00 1017.95 1017.91 1017.91 1017.89 1017.85 1017.73 1017.59 1017.57 1017.45 1017.25 1017.32 1017.37 1017.36 1017.38 1017.36
1016.08 1016.82 1017.20 1017.55 1017.81 1017.93 1018.04 1018.15 1018.23 1018.30 1018.26 1018.30 1018.32 1018.26 1018.16 1018.17 1018.16 1018.17 1018.17 1018.21 1018.22 1018.22 1018.23 1018.23 1018.22 1018.18 1018.17 1018.15 1018.08 1018.01 1017.95 1017.93 1017.87 1017.67 1017.46 1017.37 1017.39 1017.13 1017.23 1017.41 1017.46 1017.46 1017.46
1015.87 1016.67 1017.33 1017.69 1017.91 1018.06 1018.20 1018.27 1018.36 1018.38 1018.38 1018.40 1018.47 1018.44 1018.37 1018.36 1018.33 1018.26 1018.19 1018.14 1018.25 1018.32 1018.33 1018.29 1018.25 1018.22 1018.19 1018.16 1018.10 1018.03 1017.96 1017.88 1017.81 1017.63 1017.35 1016.82 1016.86 1017.03 1017.10 1017.29 1017.40 1017.41 1017.46
1016.20 1016.92 1017.59 1017.82 1018.01 1018.18 1018.30 1018.40 1018.51 1018.53 1018.51 1018.57 1018.57 1018.55 1018.53 1018.51 1018.45 1018.44 1018.37 1018.24 1018.26 1018.28 1018.27 1018.25 1018.22 1018.20 1018.15 1018.09 1018.03 1017.96 1017.89 1017.83 1017.78 1017.68 1017.27 1016.95 1016.80 1017.10 1017.14 1017.16 1017.18 1017.24 1017.34
1016.63 1017.31 1017.85 1018.02 1018.23 1018.38 1018.54 1018.61 1018.70 1018.77 1018.83 1018.88 1018.86 1018.79 1018.74 1018.72 1018.66 1018.59 1018.55 1018.47 1018.37 1018.27 1018.18 1018.14 1018.08 1018.01 1017.96 1017.92 1017.87 1017.81 1017.74 1017.72 1017.72 1017.59 1017.18 1016.86 1016.72 1016.81 1016.98 1017.03 1017.06 1017.10 1017.21
1017.08 1017.53 1018.11 1018.32 1018.54 1018.67 1018.83 1018.93 1019.01 1019.12 1019.18 1019.14 1019.10 1019.06 1019.00 1018.95 1018.91 1018.82 1018.71 1018.63 1018.52 1018.36 1018.18 1018.03 1017.88 1017.80 1017.73 1017.69 1017.61 1017.56 1017.52 1017.55 1017.59 1017.49 1017.11 1016.72 1016.59 1016.64 1016.77 1016.86 1016.91 1016.88 1016.95
1017.18 1017.73 1018.39 1018.68 1018.87 1019.02 1019.20 1019.25 1019.25 1019.37 1019.43 1019.41 1019.38 1019.36 1019.26 1019.13 1019.05 1019.00 1018.91 1018.80 1018.67 1018.51 1018.38 1018.19 1017.99 1017.82 1017.69 1017.50 1017.34 1017.30 1017.31 1017.36 1017.32 1017.25 1016.89 1016.58 1016.28 1016.40 1016.48 1016.65 1016.79 1016.77 1016.72
1017.12 1017.92 1018.41 1018.75 1019.14 1019.36 1019.47 1019.55 1019.53 1019.62 1019.63 1019.60 1019.52 1019.47 1019.41 1019.27 1019.10 1018.97 1018.90 1018.92 1018.81 1018.61 1018.42 1018.23 1018.03 1017.85 1017.68 1017.48 1017.29 1017.09 1016.99 1017.00 1017.05 1016.98 1016.60 1016.16 1016.11 1015.98 1016.12 1016.37 1016.52 1016.56 1016.51
1017.97 1018.22 1018.41 1018.60 1018.84 1019.19 1019.56 1019.67 1019.71 1019.72 1019.66 1019.62 1019.46 1019.36 1019.16 1019.06 1018.99 1018.87 1018.78 1018.82 1018.71 1018.61 1018.38 1018.15 1017.90 1017.70 1017.52 1017.33 1017.07 1016.83 1016.70 1016.62 1016.58 1016.52 1016.38 1016.16 1015.99 1015.83 1015.87 1015.98 1016.12 1016.17 1016.16
1018.58 1018.33 1018.35 1018.67 1018.91 1019.12 1019.34 1019.57 1019.72 1019.58 1019.52 1019.47 1019.37 1019.33 1019.09 1018.94 1018.82 1018.80 1018.82 1018.69 1018.56 1018.45 1018.25 1017.93 1017.76 1017.52 1017.22 1016.95 1016.64 1016.35 1016.26 1016.31 1016.06 1015.91 1015.67 1015.63 1015.61 1015.62 1015.50 1015.58 1015.72 1015.79 1015.78
1018.89 1018.49 1018.61 1018.86 1019.07 1019.16 1019.16 1019.44 1019.51 1019.43 1019.49 1019.46 1019.41 1019.41 1019.28 1019.06 1018.91 1018.78 1018.69 1018.51 1018.47 1018.29 1018.08 1017.67 1017.65 1017.37 1017.07 1016.88 1016.52 1016.12 1016.14 1016.00 1015.76 1015.50 1015.27 1015.12 1015.12 1015.18 1015.29 1015.45 1015.51 1015.55 1015.49
1018.86 1018.82 1019.04 1019.20 1019.30 1019.46 1019.58 1019.68 1019.65 1019.60 1019.63 1019.50 1019.61 1019.54 1019.46 1019.30 1019.14 1018.94 1018.82 1018.70 1018.49 1018.15 1018.09 1017.79 1017.61 1017.42 1017.21 1016.92 1016.67 1016.38 1016.03 1015.81 1015.61 1015.37 1015.15 1015.00 1014.85 1015.02 1015.19 1015.32 1015.50 1015.49 1015.35
1019.00 1019.18 1019.32 1019.44 1019.60 1019.78 1019.86 1019.83 1019.84 1019.90 1019.65 1019.77 1019.76 1019.64 1019.78 1019.79 1019.57 1019.35 1019.17 1018.94 1018.68 1018.38 1018.21 1017.98 1017.87 1017.52 1017.33 1017.05 1016.78 1016.46 1016.13 1015.87 1015.68 1015.47 1015.29 1015.09 1015.03 1015.08 1015.18 1015.30 1015.39 1015.43 1015.37
1019.14 1019.31 1019.46 1019.60 1019.81 1019.92 1019.99 1020.01 1019.98 1019.83 1019.84 1019.90 1019.89 1019.78 1019.83 1019.97 1019.92 1019.65 1019.42 1019.14 1018.85 1018.46 1018.28 1018.16 1017.96 1017.68 1017.38 1017.07 1016.76 1016.49 1016.23 1015.95 1015.68 1015.52 1015.39 1015.19 1015.11 1015.11 1015.10 1015.08 1015.12 1015.19 1015.14
1019.13 1019.39 1019.53 1019.81 1019.82 1019.93 1020.08 1020.13 1020.07 1020.00 1020.05 1020.03 1020.03 1020.00 1019.89 1019.97 1019.98 1019.79 1019.62 1019.33 1018.98 1018.61 1018.39 1018.22 1018.02 1017.69 1017.42 1016.97 1016.67 1016.35 1016.15 1015.89 1015.62 1015.49 1015.40 1015.30 1015.06 1015.00 1014.97 1014.91 1014.91 1014.96 1014.93
1019.09 1019.30 1019.53 1019.61 1019.75 1019.94 1020.00 1020.06 1020.13 1020.10 1020.12 1020.22 1020.24 1020.14 1020.00 1019.94 1019.95 1019.83 1019.75 1019.48 1019.10 1018.79 1018.53 1018.28 1017.99 1017.68 1017.47 1017.05 1016.75 1016.33 1016.05 1015.79 1015.53 1015.42 1015.42 1015.33 1015.15 1014.99 1014.89 1014.85 1014.75 1014.77 1014.83
1018.88 1019.28 1019.44 1019.49 1019.70 1019.89 1019.96 1020.18 1020.24 1020.25 1020.35 1020.31 1020.26 1020.17 1019.98 1019.94 1019.80 1019.82 1019.74 1019.47 1019.11 1018.92 1018.67 1018.39 1018.15 1017.90 1017.65 1017.37 1016.94 1016.43 1016.12 1015.73 1015.53 1015.43 1015.39 1015.31 1015.20 1015.08 1014.96 1014.83 1014.68 1014.81 1014.62
1018.74 1019.04 1019.37 1019.56 1019.88 1019.95 1020.06 1020.18 1020.22 1020.19 1020.26 1020.28 1020.22 1020.14 1020.03 1019.95 1019.80 1019.83 1019.74 1019.47 1019.10 1018.99 1018.73 1018.51 1018.25 1018.06 1017.82 1017.43 1017.03 1016.51 1016.03 1015.84 1015.74 1015.47 1015.50 1015.31 1015.21 1015.06 1015.03 1014.90 1014.80 1014.75 1014.58
1018.61 1018.86 1019.25 1019.61 1019.82 1019.95 1020.06 1020.14 1020.12 1020.04 1020.11 1020.08 1020.11 1020.11 1020.02 1019.99 1019.84 1019.84 1019.73 1019.45 1019.12 1019.07 1018.81 1018.52 1018.34 1018.16 1017.91 1017.46 1016.98 1016.60 1016.06 1015.75 1015.90 1015.78 1015.65 1015.30 1015.20 1015.05 1014.95 1014.87 1014.85 1014.73 1014.47
1018.74 1019.05 1019.32 1019.67 1019.86 1020.02 1020.16 1020.25 1020.21 1020.38 1020.25 1020.26 1020.19 1020.04 1020.01 1019.95 1019.88 1019.89 1019.77 1019.51 1019.20 1019.07 1018.85 1018.58 1018.44 1018.49 1018.19 1017.62 1017.32 1016.67 1015.95 1015.74 1015.87 1015.89 1015.54 1015.44 1015.25 1014.92 1014.79 1014.74 1014.68 1014.64 1014.52
1018.86 1019.06 1019.31 1019.52 1019.70 1019.90 1020.08 1020.14 1020.27 1020.46 1020.46 1020.31 1020.09 1019.97 1019.83 1019.84 1019.90 1019.85 1019.85 1019.70 1019.39 1019.11 1018.93 1018.72 1018.72 1018.61 1018.52 1017.97 1017.85 1017.31 1016.94 1016.58 1016.53 1015.82 1015.74 1015.72 1015.57 1015.20 1014.81 1014.63 1014.51 1014.53 1014.56
1018.83 1019.02 1019.22 1019.37 1019.62 1019.80 1019.95 1020.11 1020.31 1020.45 1020.48 1020.49 1020.17 1020.03 1019.79 1019.73 1019.76 1019.76 1019.75 1019.61 1019.33 1019.13 1019.10 1018.91 1018.81 1018.72 1018.70 1018.47 1018.04 1018.03 1017.89 1017.88 1017.64 1016.50 1016.30 1016.24 1016.05 1015.74 1015.15 1014.67 1014.58 1014.56 1014.68
1018.82 1018.96 1019.09 1019.32 1019.59 1019.75 1019.87 1020.11 1020.44 1020.57 1020.58 1020.30 1019.98 1019.83 1019.71 1019.48 1019.50 1019.51 1019.54 1019.48 1019.38 1019.21 1019.16 1019.06 1018.88 1018.82 1018.65 1018.72 1018.36 1017.81 1018.18 1018.49 1018.42 1017.81 1016.92 1016.65 1016.41 1016.14 1015.55 1014.90 1014.72 1014.77 1014.87
1018.90 1019.24 1019.32 1019.43 1019.55 1019.64 1019.78 1020.01 1020.28 1020.50 1020.26 1019.93 1019.76 1019.63 1019.49 1019.25 1019.09 1019.15 1019.26 1019.45 1019.34 1019.24 1019.20 1019.14 1019.03 1018.81 1018.63 1018.69 1018.61 1018.42 1018.40 1018.61 1018.61 1018.55 1018.05 1017.52 1016.77 1016.28 1015.74 1015.18 1014.75 1014.91 1014.98
1019.11 1019.34 1019.39 1019.48 1019.55 1019.53 1019.67 1019.90 1020.07 1020.22 1020.14 1019.98 1019.79 1019.63 1019.31 1019.07 1018.94 1018.83 1018.91 1019.09 1019.19 1019.18 1019.18 1019.03 1018.83 1018.73 1018.55 1018.64 1018.68 1018.68 1018.66 1018.67 1018.58 1018.70 1018.38 1017.92 1017.51 1016.55 1015.87 1015.04 1014.68 1014.78 1015.11
Wind_Speed
10 10 11 11 10 10 10 9 9 12 9 8 7 6 6 8 6 7 6 7 8 8 8 9 9 8 8 7 7 7 7 8 8 7 6 5 4 5 6 9 8 6 7
14 11 11 11 11 10 10 9 9 9 10 11 11 7 6 7 6 5 5 5 6 7 7 7 7 7 7 6 6 5 5 6 7 7 6 4 2 4 5 7 9 5 6
15 11 11 10 10 10 9 9 8 8 9 10 10 10 12 7 8 5 4 4 4 5 5 6 6 5 5 5 5 5 5 6 7 10 11 4 6 7 4 2 3 3 4
13 12 10 10 10 10 9 8 7 8 8 9 9 9 9 9 9 9 9 2 3 3 4 4 4 5 5 5 5 5 6 6 6 9 7 8 2 7 6 3 2 1 0
12 12 10 10 9 9 7 6 6 6 7 7 7 8 8 8 8 9 10 8 2 3 4 4 5 4 5 6 6 6 6 7 6 8 8 6 2 5 4 1 6 6 4
12 11 8 11 11 12 11 11 11 11 11 11 11 10 9 9 9 9 8 8 8 7 6 7 7 8 7 8 8 8 8 7 7 7 7 5 4 7 3 2 4 6 3
11 12 10 13 13 12 12 12 11 11 10 10 10 9 8 8 7 8 8 8 9 10 9 10 10 10 10 10 11 10 10 8 5 6 7 6 4 8 4 3 7 7 9
13 12 10 12 13 13 11 11 11 10 9 9 9 8 8 7 6 7 8 8 10 10 10 10 10 10 11 12 12 12 10 9 8 6 7 6 5 6 5 5 7 10 11
11 10 8 8 10 12 11 10 9 8 7 6 6 6 6 6 5 4 5 7 10 10 10 10 11 11 11 11 11 9 9 9 6 6 10 6 5 11 8 7 9 11 12
7 6 6 6 6 7 5 6 6 4 3 2 2 4 6 7 8 4 4 6 9 10 11 11 11 11 12 13 13 13 11 10 6 7 7 6 5 7 8 9 10 12 13
4 3 6 6 6 5 5 4 3 3 3 5 5 5 7 3 5 5 2 4 6 8 10 12 11 12 13 12 16 16 11 4 6 6 5 8 12 11 10 10 11 14 15
3 3 6 6 4 4 3 2 1 2 3 3 4 6 5 6 4 4 6 9 7 8 10 13 10 13 11 5 4 6 3 6 4 4 4 11 14 13 11 12 13 13 14
6 5 6 5 4 5 3 3 2 2 3 2 6 5 5 5 5 4 3 4 3 5 3 5 5 4 6 5 5 5 6 6 4 4 5 6 12 10 9 11 12 14 13
7 6 5 5 4 4 3 3 3 2 2 3 3 5 4 4 5 5 4 5 4 4 5 4 3 6 7 7 7 7 6 5 4 3 5 8 4 5 7 8 11 14 15
7 6 5 4 4 2 2 3 2 3 3 3 4 4 4 4 5 5 5 5 5 4 4 5 5 5 5 6 6 6 6 6 6 4 3 10 4 6 8 10 13 15 16
7 6 6 4 3 3 2 2 3 3 3 3 4 4 5 4 4 4 5 5 5 4 5 5 5 5 5 5 6 6 6 5 5 5 3 4 9 8 9 11 13 13 14
6 7 6 6 2 2 1 2 1 2 4 3 4 6 5 4 4 5 4 5 4 5 6 5 5 5 5 5 6 5 5 6 4 4 4 4 4 7 8 9 11 10 11
7 7 5 4 4 1 2 1 2 4 3 3 3 3 5 5 5 4 4 4 4 4 4 4 4 4 5 5 4 5 5 5 4 4 3 3 3 3 5 9 5 6 11
7 7 7 4 3 2 0 1 1 2 1 3 3 3 5 6 5 4 4 5 4 4 4 4 3 3 4 5 5 5 5 3 4 3 4 4 4 3 2 6 4 8 11
4 5 7 4 2 2 1 3 3 3 3 1 2 2 5 4 5 4 5 5 5 4 4 4 4 3 4 4 6 7 5 1 2 2 2 3 4 4 2 3 3 4 8
4 4 4 4 5 3 2 1 2 1 2 2 2 4 4 4 5 5 4 5 5 4 5 5 3 6 6 4 3 7 4 3 2 3 1 3 3 4 4 2 2 2 3
4 6 5 5 4 3 1 1 1 1 2 2 3 4 4 2 4 4 5 5 6 4 6 5 5 3 3 5 3 3 4 4 5 3 2 4 6 5 3 4 3 3 3
4 4 5 5 4 3 3 1 1 2 2 2 2 2 2 2 4 4 4 4 5 4 3 4 4 5 4 5 6 2 4 3 5 3 5 6 9 7 5 3 5 5 6
5 3 4 4 4 3 2 1 3 3 3 3 2 2 4 5 5 4 3 4 6 5 6 3 4 3 3 5 5 4 2 1 3 5 4 4 8 7 8 3 4 5 6
5 3 2 4 3 3 2 2 2 4 3 3 3 4 4 5 6 6 3 2 4 4 4 5 5 4 2 2 2 3 2 2 3 2 5 6 6 6 7 6 3 4 5
4 3 2 3 3 4 3 3 5 6 6 4 4 4 4 3 3 4 6 5 4 4 6 4 4 5 4 1 2 3 2 1 2 2 3 6 7 4 8 6 4 4 4
Wind_Direction
107 111 108 104 102 99 91 84 66 63 60 66 66 76 60 44 74 70 60 52 49 41 45 42 42 40 39 43 48 51 45 38 33 22 11 8 63 60 31 18 34 75 73
121 110 107 105 104 100 94 85 72 64 53 43 35 82 50 51 75 57 52 46 44 41 35 35 36 36 32 29 27 24 19 13 6 344 315 284 251 103 44 22 37 63 59
110 122 109 108 106 102 97 88 77 66 63 58 51 47 49 61 49 38 21 30 38 33 29 26 22 21 20 16 7 353 343 343 341 323 310 269 207 151 116 39 37 36 30
123 116 115 116 111 104 98 91 81 69 59 54 49 48 49 49 43 36 21 353 22 14 2 357 353 348 343 343 340 332 325 320 319 311 302 289 193 157 149 154 227 241 31
95 97 119 121 114 104 94 92 82 67 57 45 40 38 37 38 37 31 28 22 17 343 321 312 304 299 304 309 310 308 311 310 310 302 286 295 40 133 152 177 240 238 245
112 104 111 102 96 89 80 74 69 64 57 52 46 42 35 29 26 32 26 13 7 353 316 304 294 289 283 280 284 290 293 295 301 283 281 255 210 167 189 252 298 251 228
104 101 92 94 92 88 82 77 71 66 60 56 49 42 39 31 19 17 15 10 3 360 352 344 328 300 289 283 277 276 275 272 277 286 291 291 246 166 172 275 277 259 246
112 107 100 89 89 85 80 75 70 61 54 48 41 31 21 17 12 6 5 10 3 355 349 344 338 334 336 323 294 285 277 269 275 276 266 263 246 196 222 252 276 275 263
106 123 127 111 104 88 78 72 70 60 49 39 31 16 347 329 324 344 356 14 356 345 337 332 328 326 323 315 310 302 288 272 246 259 277 285 292 242 251 262 269 273 276
62 62 116 147 117 118 101 82 79 64 40 354 327 318 308 281 264 276 338 356 337 325 322 317 313 311 306 301 292 280 271 274 237 240 259 269 259 224 230 256 270 275 272
80 95 91 92 109 114 130 143 183 179 254 288 293 271 310 341 352 12 249 305 300 301 303 301 297 298 288 283 278 272 253 252 237 231 222 236 272 262 262 259 270 278 273
129 114 82 75 68 67 63 66 43 346 9 10 22 3 349 336 333 315 294 267 283 279 282 297 282 281 286 276 299 323 258 263 269 256 229 233 240 265 269 285 293 296 293
158 95 98 81 56 45 47 328 27 7 1 9 29 3 349 351 340 334 345 345 325 305 291 337 311 326 326 325 310 307 308 316 320 322 323 283 239 254 277 289 303 308 309
126 114 105 105 64 53 356 18 359 47 354 30 334 9 22 346 341 339 347 329 330 323 326 326 330 321 321 323 311 308 312 318 315 313 317 344 265 271 289 294 299 301 299
127 135 121 103 90 44 40 4 342 13 30 348 359 7 25 345 342 338 330 326 322 329 325 335 329 317 315 305 301 307 313 311 314 315 319 326 301 286 291 302 304 300 295
138 143 129 126 114 91 57 27 354 28 352 358 8 349 10 359 337 330 332 324 322 326 346 329 313 308 303 305 302 310 296 300 301 303 314 324 323 329 294 301 305 306 303
161 154 146 130 128 95 128 38 319 329 5 11 12 349 332 356 333 337 318 315 318 343 333 319 315 326 330 320 321 314 317 308 298 320 338 324 319 322 326 300 296 312 317
141 145 152 134 148 213 83 53 351 14 3 340 340 308 334 356 330 342 324 324 324 331 313 312 307 322 326 319 309 303 297 307 324 338 316 322 319 335 340 337 309 295 310
165 158 145 157 190 148 33 340 317 254 285 297 321 332 1 336 339 348 319 306 325 316 301 297 337 337 323 312 316 313 293 306 351 355 342 350 334 3 328 326 336 286 294
153 134 155 160 179 170 217 235 242 232 235 251 287 327 350 318 340 343 317 318 318 311 316 339 318 328 313 303 330 315 299 281 332 319 340 337 333 342 322 320 317 310 343
152 149 159 173 203 184 248 285 357 353 342 324 5 346 320 333 325 340 313 324 325 330 320 324 2 2 337 328 356 324 302 167 228 275 339 333 345 324 319 320 335 331 332
194 178 185 198 204 184 191 280 92 15 310 265 266 261 266 293 316 310 332 335 330 339 339 348 357 342 323 333 334 310 351 348 351 255 15 347 355 344 358 5 338 355 16
185 189 194 187 206 196 191 58 308 276 297 302 284 290 312 312 277 280 304 319 307 319 315 339 333 343 332 326 359 78 1 340 334 350 8 25 359 343 316 3 37 13 48
174 205 168 168 182 232 199 199 252 243 269 258 249 242 269 250 247 250 263 293 311 305 309 330 330 318 337 334 334 32 112 33 335 326 337 2 343 339 328 353 43 51 67
113 156 194 204 218 238 244 235 259 290 278 282 285 265 266 259 234 221 202 302 290 294 291 298 312 316 323 341 347 333 353 347 261 288 305 328 334 339 327 328 93 71 49
138 155 193 240 256 251 214 245 254 261 275 290 290 291 282 271 244 225 199 207 241 275 285 289 284 295 287 329 341 335 292 229 318 291 298 326 324 306 306 294 98 80 63